星链-30399 (STARLINK-30399 )

导读

STARLINK-30399是美国太空探索技术公司SpaceX星链互联网卫星项目中的一颗卫星,于2023年9月25日发射入轨,隶属于SpaceX批量部署的星链卫星批次,主要为全球提供低延迟、高速率的宽带互联网服务,是星链星座组网推进过程中的组成单元。

基本信息
目录编号:
57951
目录名称:
STARLINK-30399
国际标识:
2023-148S
轨道中心:
EARTH
卫星名称:
星链-30399
卫星全名:
星链-30399 (STARLINK-30399 )
卫星状态:
在轨 (已飞行997 天)
发射日期:
2023-09-25 UTC
国别 :
美国 (US)
星等 :
--
轨道信息
数据来源 国际轨道数据
星历时间: 2026-06-17T22:18:56+0800
21小时前
查看轨道信息
半长轴: 6840.831km
偏心率: 0.0000926
轨道倾角: 53.160°
近地点辐角 110.548°
升交点赤经 279.139°
平近点角 249.563°
近地点: 462.06km
远地点: 463.328km
周期: 93.848分钟
每日圈数: 15.344034
详细信息
固有亮度:
5
最大亮度:
0.3
卫星平台:
Starlink v2.0 mini
覆盖范围:
全球
运营商:
太空探索技术公司
运营商所在国:
美国
制造商(研发单位):
太空探索技术公司
制造商所在国:
美国
使用方式:
暂无
卫星简介
星链(Starlink)计划是由太空探索技术公司(SpaceX)提出的一个巨型低轨卫星互联网星座项目,计划在2019年至2024年间在太空搭建由约1.2万颗卫星组成的“星链”网络,其中1584颗将部署在地球上空550千米处的近地轨道,并从2020年开始工作。该卫星仍在工作。
2D轨道图
3D轨道图
轨道高度分析图
轨道倾角分析图
轨道综合分析图
查看轨道综合分析图